Regional Weather Roundup
Issued by NWS Burlington, VT

Home | Current Version | Previous Version | Text Only | Print | Product List | Glossary On
Versions: 1 2 3 4 5 6 7 8 9 10 11 12 13 14 15 16 17 18 19 20 21 22 23 24 25 26 27 28 29 30 31 32 33 34 35 36 37 38 39 40 41 42 43 44 45 46 47 48 49 50
000
ASUS41 KBTV 060530
RWRBTV
VERMONT REGIONAL WEATHER ROUNDUP
NATIONAL WEATHER SERVICE BURLINGTON VT
100 AM EDT MON JUL 06 2015

NOTE: "FAIR" INDICATES FEW OR NO CLOUDS BELOW 12,000 FEET WITH NO
SIGNIFICANT WEATHER AND/OR OBSTRUCTIONS TO VISIBILITY.

* THESE REPORTS ARE NOT UNDER NWS QUALITY CONTROL AND/OR DO NOT
  REPORT WEATHER SUCH AS PRECIPITATION AND FOG.

VTZ001>019-060600-
_____VERMONT_____


CITY           SKY/WX    TMP DP  RH WIND       PRES   REMARKS
BURLINGTON     CLEAR     63  59  87 NE3       30.12F
MONTPELIER     CLEAR     57  55  93 CALM      30.20S
MORRISVILLE    CLEAR     59  55  87 CALM      30.17S
ST. JOHNSBURY*   N/A     59  56  89 MISG      30.14S
LYNDONVILLE*   FAIR      57  55  94 CALM      30.18S
MIDDLEBURY*    FAIR      64  63  97 CALM      30.13F
RUTLAND*       CLEAR     61  54  77 SE10      30.16S
SPRINGFIELD    CLEAR     61  59  93 CALM      30.16S
HIGHGATE*      FAIR      60  58  95 CALM      30.12S
NEWPORT*       FAIR      57  56  97 SW3       30.15F
BENNINGTON     PTCLDY    57  55  93 CALM      30.16F
MT. MANSFIELD*   N/A     55 N/A N/A N3          N/A

_____LAKE CHAMPLAIN_____


CITY           SKY/WX    TMP DP  RH WIND       PRES   REMARKS
BURTON ISLAND*   N/A     68  64  88 SE5         N/A
COLCHESTER RF*   N/A     68  64  88 NE1         N/A
DIAMOND ISL*     N/A     66  64  94 SW1         N/A

$$

NYZ007-026>031-035-052-083-060600-
_____NORTHERN NEW YORK_____


CITY           SKY/WX    TMP DP  RH WIND       PRES   REMARKS
PLATTSBURGH    CLEAR     59  57  93 SE3       30.12S
SARANAC LAKE   CLOUDY    48  47  96 CALM      30.17S FOG
MASSENA        CLEAR     62  59  90 CALM      30.12F
OGDENSBURG*    CLEAR     61  57  88 CALM      30.12S
POTSDAM*       CLEAR     63  61  94 CALM      30.13S
WATERTOWN      CLEAR     58  54  86 CALM      30.12F
FT DRUM        CLEAR     61  57  84 SE8       30.13S
ALBANY         PTCLDY    66  58  75 E3        30.14S
GLENS FALLS    MOCLDY    63  60  90 CALM      30.13S

$$
NHZ002-005-011-060600-
_____NEW HAMPSHIRE_____


CITY           SKY/WX    TMP DP  RH WIND       PRES   REMARKS
LEBANON        MOCLDY    64  61  90 CALM      30.14S
KEENE          CLEAR     59  55  88 CALM      30.16S
MT WASHINGTON  FOG       46  46 100 NW31        N/A  VSB 1/8
PLYMOUTH       FAIR      57  57 100 CALM      30.15S FOG
WHITEFIELD     CLEAR     54  52  93 CALM      30.17S

$$

_____REGIONAL QUEBEC LOCATIONS_____


CITY           SKY/WX    TMP DP  RH WIND       PRES   REMARKS
MONTREAL       PTCLDY    68  63  83 SW8       30.10S
QUEBEC CITY    CLEAR     61  57  88 VRB2      30.08F
SHERBROOKE     CLEAR     57  57 100 SE2       30.13S FOG

_____REGIONAL ONTARIO LOCATIONS_____


CITY           SKY/WX    TMP DP  RH WIND       PRES   REMARKS
OTTAWA         PTCLDY    63  61  94 SE3       30.11S

______KEY______
VSB  - VISIBILITY IN MILES
WCI  - WIND CHILL INDEX
HX   - HEAT INDEX
$$
NNNN



USA.gov is the U.S. government's official web portal to all federal, state and local government web resources and services.